STARLINK-4610 (53610 NORAD) Tracking and Keplerian Element Data

This shows tracking and keplerian element data for the satellite.

Feedback or suggestion? Click here.




ElementValue
Catalog53610
NameSTARLINK-4610
Epoch Orbit130
Epoch Day324.91667824
Epoch Year2022
RAAN242.6695
Inclination53.2161
Eccentricity0.0001763
Argument of Perigee72.6789
Mean Anonmoly281.3732
Mean Motion15.08857516
Decay Rate-0.00015936
L11 53610U 22104Y 22324.91667824 -.00015936 00000+0 -98486-3 0 9993
L22 53610 53.2161 242.6695 0001763 72.6789 281.3732 15.08857516 1301



Live tracking and technical data element details for STARLINK-4610 (NORAD 53610). STARLINK-4610 can be tracked NOW for your location showing map with azimuth and elevation plus other details from your city location.







IsCatalogInMostPopularTable: catalog: 53610, numindb: 2
Update: records affected: 1



GetName: 53610 STARLINK-4610

Hit Count: updated at: Thu, 08 Dec 2022 19:56:52 GMT